Location: Bismarck
(46.7731°N, 100.8200°W)
Time: 06:30:51
(UTC-06:00)

ISS - Pass Details

Date: 29 November 2017
Orbit: 403 x 407 km, 51.6° (Epoch: 12 December)

Event Time Altitude Azimuth Distance (km) Brightness Sun altitude
Rises 18:03:44 0° 211° (SSW) 2,318 0.9 -11.0°
Reaches altitude 10° 18:06:01 10° 198° (SSW) 1,461 -0.5 -11.4°
Maximum altitude 18:08:47 25° 140° (SE) 855 -2.4 -11.8°
Enters shadow 18:10:21 18° 98° (E) 1,089 -2.2 -12.1°
Drops below altitude 10° 18:11:34 10° 83° (E) 1,467 - -12.3°
Sets 18:13:51 0° 70° (ENE) 2,330 - -12.6°
